Starlink 3894

operational
NORAD ID: 52499 Int'l Des: 2022-049 Owner: SPXS Country: US Constellation: starlink
LEOCIRCULAR

About Starlink 3894

Description loading...

Live Position

Loading 3D Globe...

Upcoming Passes

Altitude History

Altitude vs Time

uPlot chart will show altitude changes over time

Two-Line Element Set

1 52499U 22049BA 25352.47031836 -.00000045 00000-0 15270-4 0 9994
2 52499 53.2183 53.7300 0001281 92.3741 267.7398 15.08839175200134
Epoch: Dec 18, 2025 • Age: 15 hours

Current Status

Altitude 543.9 km
Velocity 7.60 km/s
Sub-Earth Point 46.08°N, 60.86°E
Launch Date May 6, 2022
Age 3.6 years
Type internet

Technical Details

Classification Payload
Mass 297.00 kg
Dry Mass 220.00 kg
Total Mass 297.00 kg
Length 0.20 m
Diameter 2.80 m
Span 9.00 m
Shape Box + pan
Manufacturer SPXS
Bus Type Starlink
Phase Status In Orbit
Owner/State SPXS/US

Large Constellations

Loading constellations...